Location: Budapest
(47.4979°N, 19.0402°E)
Time: 10:24:26
(UTC+02:00)

Envisat - Pass Details

Date: 22 May 2024
Orbit: 762 x 764 km, 98.3° (Epoch: 19 June)

Event Time Altitude Azimuth Distance (km) Brightness Sun altitude
Rises 04:08:48 0° 14° (NNE) 3,239 7.3 -7.6°
Reaches altitude 10° 04:11:07 10° 15° (NNE) 2,309 6.5 -7.3°
Maximum altitude 04:16:13 85° 104° (ESE) 773 3.1 -6.6°
Drops below altitude 10° 04:21:17 10° 193° (SSW) 2,291 5.0 -6.0°
Sets 04:23:34 0° 194° (SSW) 3,212 5.7 -5.7°
Enters shadow 04:23:37 - 194° (SSW) 3,229 5.7 -5.6°
